Regional Weather Roundup
Issued by NWS

Home | Current Version | Previous Version | Graphics & Text | Print | Product List | Glossary On
Versions: 1 2 3 4 5 6 7 8 9 10 11 12 13 14 15 16 17 18 19 20 21 22 23 24 25 26 27 28 29 30 31 32 33 34 35 36 37 38 39 40 41 42 43 44 45 46 47 48 49 50
000
ASUS43 KLSX 270407
RWRMO

WEATHER SUMMARY FOR MISSOURI
NATIONAL WEATHER SERVICE SPRINGFIELD MO
1000 PM CST FRI DEC 26 2014

NOTE: "FAIR" INDICATES FEW OR NO CLOUDS BELOW 12,000 FEET WITH NO
       SIGNIFICANT WEATHER AND/OR OBSTRUCTIONS TO VISIBILITY.
       CURRENT SKY AND/OR WEATHER CONDITIONS ARE NOT AVAILABLE FOR
       CHILLICOTHE AND FARMINGTON.

MOZ001>031-035>038-043-044-053-054-270500-
...NORTHERN AND WESTERN MISSOURI...

CITY           SKY/WX    TMP DP  RH WIND       PRES   REMARKS
KANSAS CTY INT CLOUDY    38  34  85 NW7       29.99R
KANSAS C DTWN  CLOUDY    41  34  76 NW3       29.99S
LEE`S SUMMIT   CLOUDY    40  38  93 NW3       29.98R
ST JOSEPH      CLOUDY    36  33  89 NW3       30.01R
CHILLICOTHE      N/A     44  39  82 NW3       29.99R
KIRKSVILLE     CLOUDY    46  44  93 NE6       29.96R

$$
MOZ066>068-077>081-088>096-101>105-270500-
...SOUTHWEST MISSOURI...

CITY           SKY/WX    TMP DP  RH WIND       PRES   REMARKS
SPRINGFIELD    CLOUDY    49  47  93 S13       30.01R
JOPLIN         CLOUDY    53  51  93 S12       30.00R

$$
MOZ032>034-039>042-045>050-055>058-069>072-270500-
...CENTRAL MISSOURI...

CITY           SKY/WX    TMP DP  RH WIND       PRES   REMARKS
COLUMBIA       CLOUDY    50  48  93 S14       30.00S
JEFFERSON CITY CLOUDY    51  46  83 S10       30.02R
ROLLA          CLOUDY    45  43  93 S13       30.02R
SEDALIA        CLOUDY    53  49  86 S9        29.99R
WHITEMAN AFB   DRIZZLE   51  49  90 S13       29.97R
WARRENSBURG    CLOUDY    45  43  93 NW8       29.98R
OSAGE BEACH    CLOUDY    48  45  87 S12       30.02S

$$
MOZ051-052-059>065-270500-
...EAST CENTRAL MISSOURI...

CITY           SKY/WX    TMP DP  RH WIND       PRES   REMARKS
ST LOUIS INTL  CLOUDY    53  40  61 S9        30.04S
SPIRIT OF STL  LGT RAIN  52  41  66 SW8G16    30.05R
ST CHARLES     CLOUDY    51  42  71 SW5       30.05R

$$
MOZ072>076-082>087-097>100-106>115-270500-
...SOUTH CENTRAL AND SOUTHEAST MISSOURI...

CITY           SKY/WX    TMP DP  RH WIND       PRES   REMARKS
CAPE GIRARDEAU CLOUDY    48  40  73 SE12      30.14R
POPLAR BLUFF   CLOUDY    49  40  71 S6        30.12S
WEST PLAINS    LGT RAIN  46  44  93 S5        30.08R FOG

$$



USA.gov is the U.S. government's official web portal to all federal, state and local government web resources and services.